This is the latest recevied weather packets stored in our database for station/object SQ3VAS-10. If no packets are shown the sender has not sent any weather packets the latest 10 day(s).
| Time | Temp. | Humidity | Pressure | Rain* | Wind** | Luminosity | Snow |
|---|---|---|---|---|---|---|---|
| 1777616739 | 13.33° C | 60% | 1029.1 hPa | - | - | - | - |
| 1777616166 | 12.22° C | 64% | 1029.1 hPa | - | - | - | - |
| 1777615594 | 11.67° C | 65% | 1029.1 hPa | - | - | - | - |
| 1777615020 | 11.11° C | 67% | 1029.3 hPa | - | - | - | - |
| 1777614447 | 11.11° C | 69% | 1029.2 hPa | - | - | - | - |
| 1777613874 | 10.56° C | 70% | 1029.1 hPa | - | - | - | - |
| 1777613301 | 9.44° C | 73% | 1029.2 hPa | - | - | - | - |
| 1777612728 | 8.89° C | 73% | 1029.2 hPa | - | - | - | - |
| 1777612155 | 8.33° C | 75% | 1029.2 hPa | - | - | - | - |
| 1777611582 | 7.78° C | 77% | 1029.2 hPa | - | - | - | - |
| 1777611009 | 7.22° C | 78% | 1029.2 hPa | - | - | - | - |
| 1777610436 | 6.11° C | 80% | 1029.2 hPa | - | - | - | - |
| 1777609864 | 5.56° C | 78% | 1029.2 hPa | - | - | - | - |
| 1777609292 | 5.56° C | 78% | 1029.2 hPa | - | - | - | - |
| 1777608721 | 5.56° C | 78% | 1029.3 hPa | - | - | - | - |
| 1777608149 | 5.56° C | 78% | 1029.3 hPa | - | - | - | - |
| 1777607577 | 5° C | 77% | 1029.2 hPa | - | - | - | - |
| 1777607006 | 5° C | 77% | 1029.3 hPa | - | - | - | - |
| 1777606434 | 5° C | 77% | 1029.4 hPa | - | - | - | - |
| 1777605863 | 5° C | 78% | 1029.4 hPa | - | - | - | - |
| 1777605290 | 5° C | 75% | 1029.4 hPa | - | - | - | - |
| 1777604719 | 5° C | 74% | 1029.5 hPa | - | - | - | - |
| 1777604147 | 5° C | 74% | 1029.5 hPa | - | - | - | - |
| 1777603576 | 5° C | 74% | 1029.5 hPa | - | - | - | - |
| 1777603004 | 5° C | 73% | 1029.6 hPa | - | - | - | - |
* Rain since midnight (hover to see other rain measurements)
** Current wind speed in m/s (hover to see current wind gust speed)